Regional Weather Roundup
Issued by NWS Upton, NY

Current Version | Previous Version | Text Only | Print | Product List | Glossary On
Versions: 1 2 3 4 5 6 7 8 9 10 11 12 13 14 15 16 17 18 19 20 21 22 23 24 25 26 27
000
ASUS41 KOKX 181605
RWROKX

Regional Weather Roundup
National Weather Service New York NY
1200 PM EDT WED APR 18 2018

Note: "FAIR" indicates few or no clouds below 12,000 feet with no
significant weather and/or obstructions to visibility.

NYZ071-072-176-178-NJZ106-104-181700-
New York City Metro Area

CITY           SKY/WX    TMP DP  RH WIND       PRES   REMARKS
Central Park   PTSUNNY   47  27  45 W10G21    29.83R
Bronx Bot Gard   N/A     46  27  46 W23       29.80
Bronx Lehman C   N/A     46  28  49 NW10        N/A
LaGuardia Arpt PTSUNNY   48  26  42 W12G24    29.81R
Queens College NOT AVBL
Kennedy Intl   PTSUNNY   47  29  49 W21G26    29.82R
Breezy Point     N/A     46 N/A N/A W14G21      N/A
Brooklyn Coll    N/A     46  28  49 W14         N/A
Staten Island    N/A     45  28  53 W18         N/A
Newark/Liberty PTSUNNY   51  28  41 W21G29    29.81S
Teterboro      CLOUDY    46  29  51 NW17G25   29.80S
$$

NYZ177-179-078>081-181700-
Long Island New York

CITY           SKY/WX    TMP DP  RH WIND       PRES   REMARKS
Jones Beach      N/A     45 N/A N/A W20         N/A
Wantagh          N/A     46  28  49 W14         N/A
Hempstead        N/A     46  30  53 S3        29.84
Matinecock Pt    N/A     45 N/A N/A W20         N/A
Farmingdale    CLOUDY    45  27  49 W15G21    29.81R
MacArthur/ISP  PTSUNNY   48  28  46 W20       29.79R
Stony Brook      N/A     45  30  57 W12         N/A
Shirley        FAIR      48  30  49 W17G26    29.78S
Mt Sinai Harb    N/A     46 N/A N/A W9G16       N/A
Westhampton    PTSUNNY   48  27  44 W12G29    29.78S
East Hampton   FAIR      46  29  51 W13G25    29.76S
Southold         N/A     45  32  61 W12G24      N/A
Montauk          N/A     46  30  53 W17G26    29.76F
$$

NYZ052-065-067-181700-
Hudson Valley

CITY           SKY/WX    TMP DP  RH WIND       PRES   REMARKS
White Plains   PTSUNNY   44  26  49 W15G22    29.78R
Larchmont Harb   N/A     43 N/A N/A W15         N/A
Croton On Huds   N/A     43 N/A N/A SW16        N/A
Somers           N/A     43  30  61 NW12        N/A
Brewster         N/A     43  30  61 NW12        N/A
Newburgh       CLOUDY    43  32  65 NW14G23   29.78R
Montgomery     CLOUDY    44  28  53 W14G22    29.77S
Otisville        N/A     41  30  65 W8          N/A
Warwick          N/A     43  30  61 W15         N/A
Suffern          N/A     43  28  56 W12G25      N/A
Poughkeepsie   CLOUDY    45  29  53 W12G25    29.76R
Albany         CLOUDY    43  29  57 W17       29.73R
$$

NJZ001-105-106-008-010-013-015-019>022-104-181700-
New Jersey

CITY           SKY/WX    TMP DP  RH WIND       PRES   REMARKS
Newark/Liberty PTSUNNY   51  28  41 W21G29    29.81S
Teterboro      CLOUDY    46  29  51 NW17G25   29.80S
Caldwell       PTSUNNY   46  26  45 W14G22    29.82R
Somerville     CLOUDY    46  29  51 W12G23    29.82S
Linden         PTSUNNY   47  28  48 W13G21    29.83R
Perth Amboy      N/A     43 N/A N/A W21G28      N/A
Sussex         CLOUDY    43  28  55 W9        29.80R
Andover          N/A     42  27  55 W8        29.81R
Trenton        PTSUNNY   46  29  51 W13G18    29.84F
Millville      FAIR      49  27  42 W9G18     29.87F
Atlantic City  FAIR      51  29  42 W15G22    29.86F
Wrightstown    FAIR      49  28  43 W15G23    29.83
Toms River     FAIR      50  28  42 W18       29.85F
Belmar         FAIR      47  28  47 W17G23    29.84R
$$

PAZ047>061-062-071-181700-
Eastern Pennsylvania

CITY           SKY/WX    TMP DP  RH WIND       PRES   REMARKS
Philadelphia   FAIR      46  26  45 SW10      29.87F
Allentown      CLOUDY    43  25  49 W14       29.85S
Scranton       CLOUDY    39  28  64 SW15      29.80S WCI  31
$$

CTZ002-004>006-009-010-012-RIZ004-006-007-MAZ004-011-015-181700-
Southern New England

 In CT

CITY           SKY/WX    TMP DP  RH WIND       PRES   REMARKS
Bradley Intl   PTSUNNY   45  29  53 W13G23    29.73R
Hartford       CLOUDY    48  30  49 W10G18    29.74S
Danbury        CLOUDY    43  28  55 W9G17     29.77S
Wtrbury/Oxford PTSUNNY   43  30  60 W14G21    29.74R
Norwalk Harbor   N/A     41 N/A N/A W16         N/A
Bridgeport     FAIR      48  29  47 W14G28    29.76S
Meriden        CLOUDY    45  29  53 VRB6G16   29.74S
New Haven      CLOUDY    47  30  51 W12G18    29.75S
Chester        CLOUDY    46  28  49 W10G17    29.73S
Groton         PTSUNNY   46  34  62 W22       29.73S
Willimantic    PTSUNNY   45  29  53 W12G21    29.73S

 In RI

CITY           SKY/WX    TMP DP  RH WIND       PRES   REMARKS
Providence     FAIR      47  31  53 NW14G23   29.70F
Block Island   FAIR      45  31  58 W15G29    29.74
Westerly       CLOUDY    45  33  63 SW12G26   29.73F

In MA

CITY           SKY/WX    TMP DP  RH WIND       PRES   REMARKS
Boston         FAIR      47  28  47 W15G24    29.65S
Worcester      CLOUDY    41  27  57 W21       29.65R
Westfield      CLOUDY    43  30  60 W13       29.71S
Provincetown   FAIR      47  30  51 W14G20    29.67S
Nantucket      PTSUNNY   45  31  58 W25G38    29.71F
$$

ANZ330-335-338-340-345-350-353-355-181700-
Coastal Marine Observations


STATION/POSITION TIME  SKY/WX   TEMP    WIND        PRES    VSBY  WAVE
                                AIR SEA DIR/SP/G                  HT/PER
                 (UTC)          (F)     (DEG/KT/KT) (MB)    (MI)  (FT/S)
NY Harb Entrance 1550            43 44  280/ 17/ 21 1009.9          3/10
20 S Fire Island 1550            42 42  250/ 14/ 16 1009.9          5/ 5
23 SSW Montauk P 1550            41 42  250/ 21/ 25 1007.9          6/ 6
15 E Barnegat Li 1530               44                N/A           4/10
Hudson Canyon    1550            42 44  270/ 19/ 23 1010.4          6/ 6
Kings Point      1542            43 44  310/ 12/ 15 1010.2
Execution Rocks  NOT AVBL
Western LI Sound NOT AVBL
Central LI Sound 1545            42     260/ 17/ 23   N/A           4
Robbins Reef     1542            44     270/ 19/ 24 1010.1
$$


>>>>>>>>>>>>>>>>>>>>>>>>>>>> KEY <<<<<<<<<<<<<<<<<<<<<<<<<<<
>                                                          <
>     SKY/WX - Sky Condition/Present Weather               <
>     TMP    - Temperature in Fahrenheit                   <
>     DP     - Dew Point in Fahrenheit                     <
>     RH     - Relative Humidity in Percent                <
>     WIND   - Direction (from) and Speed in MPH           <
>     PRES   - Mean Sea Level Pressure (inches of Hg)      <
>     WCI    - Wind Chill Index                            <
>     VSB    - Visibility in Miles                         <
>     HX     - Heat Index                                  <
>     TC     - Temperature in Celsius                      <
>     VRB    - Varibale Wind Direction                     <
>                                                          <
>>>>>>>>>>>>>>>>>>>>>>>>>>>> KEY <<<<<<<<<<<<<<<<<<<<<<<<<<<




USA.gov is the U.S. government's official web portal to all federal, state and local government web resources and services.